Regional Weather Roundup
Issued by NWS

Home | Current Version | Previous Version | Graphics & Text | Print | Product List | Glossary On
Versions: 1 2 3 4 5 6 7 8 9 10 11 12 13 14 15 16 17 18 19 20 21 22 23 24 25 26 27 28 29 30 31 32 33 34 35 36 37 38 39 40 41 42 43 44 45 46 47 48 49 50
000
ASUS45 KABQ 271001
RWRNM
WEATHER ROUNDUP FOR NEW MEXICO
NATIONAL WEATHER SERVICE ALBUQUERQUE NM
400 AM MDT WED AUG 27 2014

NOTE: "FAIR" MEANS FEW OR NO CLOUDS BELOW 12,000 FEET AGL WITH NO
       SIGNIFICANT WEATHER OR OBSTRUCTIONS TO VISION.

      THIS PRODUCT IS RELEASED AS TWO VERSIONS.  ONE VERSION NEAR
      THE TOP OF THE HOUR CONTAINING PRELIMINARY DATA FROM ALBUQUERQUE
      AND OTHER STATIONS.  A FINAL VERSION WITH ADDITIONAL DATA IS
      ISSUED ABOUT 10 MINUTES AFTER THE HOUR.

NMZ501-503-504-510>518-271100-
NORTHWEST PLATEAU/NORTHCENTRAL MOUNTAINS

CITY           SKY/WX    TMP DP  RH WIND       PRES   REMARKS
FARMINGTON     CLEAR     53  52  96 NW5       30.29R
LOS ALAMOS     CLOUDY    55  55 100 CALM      30.36F
SANTA FE       CLOUDY    58  56  93 N3        30.30F
TAOS           CLOUDY    55  52  88 CALM      30.35F
ANGEL FIRE     LGT RAIN  52  48  84 CALM      30.41F

$$
NMZ402-403-502-505>509-271100-
WESTCENTRAL MOUNTAINS/SOUTHWEST MOUNTAINS

CITY           SKY/WX    TMP DP  RH WIND       PRES   REMARKS
GALLUP         FAIR      49  48  97 CALM      30.33R
SILVER CITY    FAIR      63  57  82 N5        30.26F

$$
NMZ407-409-411-412-271100-
SOUTHERN DESERTS

CITY           SKY/WX    TMP DP  RH WIND       PRES   REMARKS
LORDSBURG      FAIR      63  61  94 S3        30.18S
DEMING         FAIR      63  60  90 CALM      30.18F
LAS CRUCES     MOCLDY    68  62  82 NW5       30.20F
HOLLOMAN AFB   CLOUDY    67  66  94 E6        30.17F
ALAMOGORDO     CLOUDY    66  63  88 CALM      30.19F
T OR C         CLOUDY    62  61  96 NE5       30.23F

$$
NMZ519>523-271100-
CENTRAL VALLEYS/CENTRAL HIGHLANDS

CITY           SKY/WX    TMP DP  RH WIND       PRES   REMARKS
ALBUQUERQUE    CLOUDY    61  58  90 W14       30.27R
DOUBLE EAGLE   CLOUDY    57  56  95 CALM      30.30R
CLINES CORNERS CLOUDY    56  55  97 W8        30.34F
BELEN          CLOUDY    59  58  96 W9        30.27R
SOCORRO        CLOUDY    61  60  96 S7        30.25S

$$
NMZ524>526-539-540-271100-
SOUTHCENTRAL MOUNTAINS

CITY           SKY/WX    TMP DP  RH WIND       PRES   REMARKS
RUIDOSO        NOT AVBL

$$
NMZ527>531-271100-
NORTHEAST HIGHLANDS/NORTHEAST PLAINS

CITY           SKY/WX    TMP DP  RH WIND       PRES   REMARKS
LAS VEGAS      LGT RAIN  57  55  93 SW6       30.33S
RATON          LGT RAIN  59  57  93 W6        30.26F
CLAYTON        CLOUDY    63  61  93 S7        30.21R

$$
NMZ532>537-271100-
EASTCENTRAL PLAINS

CITY           SKY/WX    TMP DP  RH WIND       PRES   REMARKS
TUCUMCARI        N/A     68  63  84 E6        30.16S
CANNON AFB     NOT AVBL
CLOVIS AIRPORT   N/A     64  61  88 N7        30.20S

$$
NMZ028-029-538-271100-
SOUTHEAST PLAINS

CITY           SKY/WX    TMP DP  RH WIND       PRES   REMARKS
ROSWELL        MOCLDY    68  66  93 SW5       30.14R
CARLSBAD       MOCLDY    72  64  76 W8        30.09S
HOBBS          CLOUDY    72  63  73 E5        30.13S


$$



USA.gov is the U.S. government's official web portal to all federal, state and local government web resources and services.